Simultaneous Nadir Overpasses (SNOs) Predictions

Prediction of SNOs between GOES-16 and METOP-B Satellite Orbit:

Table of predicted SNOs for the next 14.0 days since TLE Epoch: 7/27/2024
Index Date Time (GOES-16) GOES-16 Lat,Lon METOP-B Lat,Lon Distance(km) Time Diff (sec)
1 07/28/2024 14:22:06 -0.00, -75.21 -0.04, -75.06 17.63 80
2 07/31/2024 02:20:32 -0.00, -75.22 0.09, -74.69 59.25 80
3 08/01/2024 14:36:47 -0.00, -75.23 0.91, -79.29 461.79 80
4 08/02/2024 14:18:49 -0.00, -75.24 -0.19, -74.30 106.72 80
5 08/04/2024 02:35:14 0.01, -75.26 -0.78, -78.94 418.88 80
6 08/05/2024 02:17:16 0.02, -75.27 0.33, -73.96 150.02 80
7 08/06/2024 14:33:31 -0.03, -75.30 0.72, -78.54 369.35 80
8 08/07/2024 14:15:33 -0.03, -75.32 -0.40, -73.56 200.35 80
9 08/09/2024 02:34:36 0.03, -75.35 -0.62, -78.18 323.20 80
10 08/10/2024 02:11:19 0.02, -75.37 0.50, -73.20 246.85 80
